When you browse on this site, cookies collect data to enhance your experience and personalize the content and advertising you see.
Visit our Privacy Policy to learn more. By continuing to use the site, you agree to this use of cookies and data.
  • în România
  • Lista ţărilor
  • Pe 7 zile
  • Temperatura apei
  • Meteo pe hartă
  • Widget-uri
  • user-avatar
    Intrare

    Meteo pe oră la San Juan

    Astăzi, 3 Iunie, Miercuri

    Timp Temperatura Precipitaţii Vânt Presiune Umiditate
    00:00 +9°C° 0 mm 2 m/s 700 mmHg 51%
    01:00 +8°C° 0 mm 2 m/s 700 mmHg 56%
    02:00 +8°C° 0 mm 2 m/s 700 mmHg 57%
    03:00 +8°C° 0 mm 3 m/s 700 mmHg 58%
    04:00 +7°C° 0 mm 4 m/s 700 mmHg 60%
    05:00 +7°C° 0 mm 5 m/s 701 mmHg 61%
    06:00 +7°C° 0 mm 6 m/s 702 mmHg 62%
    07:00 +6°C° 0 mm 7 m/s 703 mmHg 63%
    08:00 +7°C° 0 mm 9 m/s 704 mmHg 60%
    09:00 +8°C° 0 mm 10 m/s 705 mmHg 57%
    10:00 +9°C° 0 mm 12 m/s 706 mmHg 54%
    11:00 +8°C° 0.1 mm 11 m/s 706 mmHg 62%
    12:00 +7°C° 0.1 mm 11 m/s 706 mmHg 69%
    13:00 +6°C° 0.1 mm 10 m/s 706 mmHg 77%
    14:00 +6°C° 0.4 mm 10 m/s 707 mmHg 79%
    15:00 +6°C° 0.4 mm 9 m/s 707 mmHg 80%
    16:00 +5°C° 0.4 mm 9 m/s 708 mmHg 81%
    17:00 +5°C° 0.2 mm 8 m/s 709 mmHg 80%
    18:00 +6°C° 0.2 mm 7 m/s 710 mmHg 79%
    19:00 +6°C° 0.2 mm 7 m/s 711 mmHg 77%
    20:00 +7°C° 0.1 mm 6 m/s 711 mmHg 78%
    21:00 +7°C° 0.1 mm 5 m/s 711 mmHg 80%
    22:00 +7°C° 0.1 mm 4 m/s 712 mmHg 81%
    23:00 +8°C° 0 mm 3 m/s 712 mmHg 81%

    Mâine, 4 Iunie, Joi

    Timp Temperatura Precipitaţii Vânt Presiune Umiditate
    00:00 +7°C° 0 mm 2 m/s 712 mmHg 81%
    01:00 +8°C° 0 mm 1 m/s 712 mmHg 81%
    02:00 +8°C° 0 mm 1 m/s 711 mmHg 82%
    03:00 +6°C° 0 mm 0 m/s 711 mmHg 83%
    04:00 +6°C° 0 mm 0 m/s 711 mmHg 85%
    05:00 +6°C° 0 mm 0 m/s 711 mmHg 84%
    06:00 +7°C° 0 mm 1 m/s 711 mmHg 84%
    07:00 +7°C° 0 mm 1 m/s 711 mmHg 84%
    08:00 +8°C° 0 mm 2 m/s 711 mmHg 74%
    09:00 +9°C° 0 mm 2 m/s 711 mmHg 64%
    10:00 +11°C° 0 mm 3 m/s 711 mmHg 55%
    11:00 +12°C° 0 mm 3 m/s 710 mmHg 49%
    12:00 +13°C° 0 mm 4 m/s 709 mmHg 44%
    13:00 +14°C° 0 mm 4 m/s 708 mmHg 38%
    14:00 +14°C° 0 mm 4 m/s 708 mmHg 38%
    15:00 +14°C° 0 mm 4 m/s 708 mmHg 38%
    16:00 +14°C° 0 mm 4 m/s 707 mmHg 38%
    17:00 +13°C° 0 mm 3 m/s 708 mmHg 43%
    18:00 +11°C° 0 mm 3 m/s 708 mmHg 48%
    19:00 +10°C° 0 mm 2 m/s 708 mmHg 52%
    20:00 +10°C° 0 mm 2 m/s 708 mmHg 52%
    21:00 +9°C° 0 mm 2 m/s 708 mmHg 52%
    22:00 +9°C° 0 mm 2 m/s 708 mmHg 52%
    23:00 +9°C° 0 mm 2 m/s 708 mmHg 51%

    Poimâine, 5 Iunie, Vineri

    Timp Temperatura Precipitaţii Vânt Presiune Umiditate
    00:00 +8°C° 0 mm 2 m/s 708 mmHg 50%
    01:00 +8°C° 0 mm 2 m/s 708 mmHg 48%
    02:00 +8°C° 0 mm 2 m/s 707 mmHg 48%
    03:00 +8°C° 0 mm 2 m/s 707 mmHg 48%
    04:00 +7°C° 0 mm 2 m/s 707 mmHg 49%
    05:00 +8°C° 0 mm 2 m/s 707 mmHg 46%
    06:00 +8°C° 0 mm 2 m/s 707 mmHg 43%
    07:00 +8°C° 0 mm 2 m/s 707 mmHg 40%
    08:00 +12°C° 0 mm 2 m/s 708 mmHg 34%
    09:00 +14°C° 0 mm 2 m/s 708 mmHg 27%
    10:00 +17°C° 0 mm 3 m/s 708 mmHg 21%
    11:00 +18°C° 0 mm 3 m/s 708 mmHg 18%
    12:00 +20°C° 0 mm 3 m/s 707 mmHg 16%
    13:00 +21°C° 0 mm 2 m/s 707 mmHg 13%
    14:00 +20°C° 0 mm 2 m/s 706 mmHg 14%
    15:00 +20°C° 0 mm 2 m/s 706 mmHg 15%
    16:00 +20°C° 0 mm 1 m/s 706 mmHg 16%
    17:00 +18°C° 0 mm 1 m/s 706 mmHg 19%
    18:00 +15°C° 0 mm 1 m/s 706 mmHg 22%
    19:00 +13°C° 0 mm 1 m/s 706 mmHg 25%
    20:00 +11°C° 0 mm 0 m/s 706 mmHg 26%
    21:00 +11°C° 0 mm 0 m/s 705 mmHg 27%
    22:00 +10°C° 0 mm 0 m/s 705 mmHg 28%
    23:00 +10°C° 0 mm 0 m/s 705 mmHg 28%

    6 Iunie, Sâmbătă

    Timp Temperatura Precipitaţii Vânt Presiune Umiditate
    00:00 +9°C° 0 mm 0 m/s 705 mmHg 29%
    01:00 +9°C° 0 mm 0 m/s 705 mmHg 29%
    02:00 +8°C° 0 mm 0 m/s 704 mmHg 32%
    03:00 +8°C° 0 mm 0 m/s 704 mmHg 35%
    04:00 +7°C° 0 mm 0 m/s 704 mmHg 38%
    05:00 +9°C° 0 mm 1 m/s 704 mmHg 34%
    06:00 +9°C° 0 mm 1 m/s 704 mmHg 30%
    07:00 +10°C° 0 mm 1 m/s 704 mmHg 25%
    08:00 +13°C° 0 mm 1 m/s 704 mmHg 21%
    09:00 +16°C° 0 mm 2 m/s 705 mmHg 16%
    10:00 +19°C° 0 mm 2 m/s 705 mmHg 12%
    11:00 +20°C° 0 mm 2 m/s 704 mmHg 11%
    12:00 +23°C° 0 mm 2 m/s 704 mmHg 10%
    13:00 +24°C° 0 mm 2 m/s 704 mmHg 9%
    14:00 +23°C° 0 mm 2 m/s 704 mmHg 10%
    15:00 +21°C° 0 mm 2 m/s 703 mmHg 11%
    16:00 +21°C° 0 mm 1 m/s 703 mmHg 13%
    17:00 +19°C° 0 mm 1 m/s 704 mmHg 15%
    18:00 +16°C° 0 mm 2 m/s 704 mmHg 17%
    19:00 +15°C° 0 mm 2 m/s 704 mmHg 19%
    20:00 +14°C° 0 mm 2 m/s 705 mmHg 21%
    21:00 +14°C° 0 mm 2 m/s 705 mmHg 23%
    22:00 +12°C° 0 mm 3 m/s 705 mmHg 25%
    23:00 +13°C° 0 mm 2 m/s 705 mmHg 27%

    7 Iunie, Duminică

    Timp Temperatura Precipitaţii Vânt Presiune Umiditate
    00:00 +12°C° 0 mm 2 m/s 705 mmHg 28%
    01:00 +10°C° 0 mm 2 m/s 706 mmHg 30%
    02:00 +10°C° 0 mm 2 m/s 706 mmHg 34%
    03:00 +10°C° 0 mm 2 m/s 706 mmHg 37%
    04:00 +9°C° 0 mm 3 m/s 706 mmHg 41%
    05:00 +9°C° 0 mm 3 m/s 706 mmHg 44%
    06:00 +9°C° 0 mm 2 m/s 707 mmHg 48%
    07:00 +8°C° 0 mm 2 m/s 707 mmHg 51%
    08:00 +10°C° 0 mm 3 m/s 707 mmHg 47%
    09:00 +12°C° 0 mm 3 m/s 707 mmHg 43%
    10:00 +14°C° 0 mm 3 m/s 707 mmHg 38%
    11:00 +14°C° 0 mm 3 m/s 707 mmHg 37%
    12:00 +16°C° 0 mm 2 m/s 706 mmHg 35%
    13:00 +17°C° 0 mm 2 m/s 706 mmHg 33%
    14:00 +18°C° 0 mm 1 m/s 706 mmHg 34%
    15:00 +18°C° 0 mm 1 m/s 705 mmHg 34%
    16:00 +18°C° 0 mm 1 m/s 705 mmHg 34%
    17:00 +16°C° 0 mm 1 m/s 706 mmHg 39%
    18:00 +14°C° 0 mm 1 m/s 706 mmHg 43%
    19:00 +11°C° 0 mm 0 m/s 706 mmHg 48%
    20:00 +11°C° 0 mm 0 m/s 706 mmHg 48%
    21:00 +10°C° 0 mm 0 m/s 706 mmHg 48%
    22:00 +10°C° 0 mm 0 m/s 706 mmHg 48%
    23:00 +11°C° 0 mm 1 m/s 706 mmHg 47%

    8 Iunie, Luni

    Timp Temperatura Precipitaţii Vânt Presiune Umiditate
    00:00 +11°C° 0 mm 1 m/s 706 mmHg 46%
    01:00 +10°C° 0 mm 1 m/s 705 mmHg 44%
    02:00 +10°C° 0 mm 1 m/s 705 mmHg 48%
    03:00 +8°C° 0 mm 0 m/s 705 mmHg 51%
    04:00 +8°C° 0 mm 0 m/s 704 mmHg 55%
    05:00 +8°C° 0 mm 0 m/s 704 mmHg 51%
    06:00 +8°C° 0 mm 0 m/s 704 mmHg 47%
    07:00 +8°C° 0 mm 0 m/s 705 mmHg 44%
    08:00 +11°C° 0 mm 0 m/s 705 mmHg 37%
    09:00 +15°C° 0 mm 1 m/s 705 mmHg 31%
    10:00 +19°C° 0 mm 1 m/s 705 mmHg 24%
    11:00 +20°C° 0 mm 1 m/s 704 mmHg 22%
    12:00 +21°C° 0 mm 1 m/s 703 mmHg 20%
    13:00 +21°C° 0 mm 2 m/s 703 mmHg 18%
    14:00 +21°C° 0 mm 2 m/s 703 mmHg 20%
    15:00 +20°C° 0 mm 3 m/s 703 mmHg 21%
    16:00 +19°C° 0 mm 3 m/s 703 mmHg 23%
    17:00 +18°C° 0 mm 3 m/s 703 mmHg 26%
    18:00 +16°C° 0 mm 3 m/s 703 mmHg 29%
    19:00 +14°C° 0 mm 3 m/s 704 mmHg 32%
    20:00 +13°C° 0 mm 3 m/s 704 mmHg 32%
    21:00 +14°C° 0 mm 2 m/s 704 mmHg 33%
    22:00 +13°C° 0 mm 2 m/s 704 mmHg 33%
    23:00 +12°C° 0 mm 3 m/s 705 mmHg 34%
    Arată mai mult